Location: Conflandey
(47.7287°N, 6.0456°E)
Time: 22:11:47
(UTC+00:00)

Cosmos 2219 Rocket - Pass Details

Date: 24 October 2021
Orbit: 826 x 848 km, 71.0° (Epoch: 05 December)

Event Time Altitude Azimuth Distance (km) Brightness Sun altitude
Rises 18:11:13 0° 168° (SSE) 3,352 5.2 -17.5°
Reaches altitude 10° 18:14:02 10° 155° (SSE) 2,425 4.3 -17.9°
Enters shadow 18:15:40 17° 141° (SE) 1,982 3.8 -18.2°
